EN

Hourly Weather Ambariv

Today, 22 January, Friday

Time Temperature Precipitation Wind Pressure Humidity
00:00 -2°C° 0 mm 3 mps 753 mmHg 91%
01:00 -2°C° 0 mm 3 mps 753 mmHg 90%
02:00 -2°C° 0 mm 3 mps 753 mmHg 90%
03:00 -2°C° 0 mm 3 mps 752 mmHg 90%
04:00 -2°C° 0 mm 3 mps 752 mmHg 90%
05:00 -2°C° 0 mm 3 mps 752 mmHg 90%
06:00 -2°C° 0 mm 3 mps 752 mmHg 90%
07:00 -2°C° 0 mm 3 mps 752 mmHg 89%
08:00 -2°C° 0 mm 3 mps 752 mmHg 89%
09:00 -2°C° 0 mm 4 mps 752 mmHg 87%
10:00 -1°C° 0 mm 4 mps 752 mmHg 84%
11:00 +1°C° 0 mm 4 mps 752 mmHg 81%
12:00 +1°C° 0 mm 4 mps 751 mmHg 80%
13:00 +3°C° 0 mm 4 mps 751 mmHg 79%
14:00 +4°C° 0 mm 4 mps 750 mmHg 79%
15:00 +3°C° 0 mm 4 mps 750 mmHg 82%
16:00 +1°C° 0 mm 4 mps 750 mmHg 85%
17:00 0°C° 0 mm 4 mps 750 mmHg 88%
18:00 0°C° 0 mm 4 mps 750 mmHg 90%
19:00 0°C° 0 mm 4 mps 749 mmHg 92%
20:00 0°C° 0 mm 4 mps 749 mmHg 94%
21:00 0°C° 0 mm 4 mps 749 mmHg 94%
22:00 0°C° 0 mm 4 mps 749 mmHg 94%
23:00 0°C° 0 mm 4 mps 749 mmHg 94%

Tomorrow, 23 January, Saturday

Time Temperature Precipitation Wind Pressure Humidity
00:00 0°C° 0 mm 4 mps 748 mmHg 93%
01:00 0°C° 0 mm 4 mps 748 mmHg 92%
02:00 0°C° 0 mm 4 mps 748 mmHg 91%
03:00 0°C° 0 mm 4 mps 748 mmHg 93%
04:00 0°C° 0 mm 4 mps 748 mmHg 94%
05:00 +1°C° 0 mm 4 mps 747 mmHg 96%
06:00 +1°C° 0 mm 4 mps 747 mmHg 96%
07:00 +1°C° 0 mm 4 mps 747 mmHg 97%
08:00 +1°C° 0 mm 4 mps 747 mmHg 97%
09:00 +3°C° 0 mm 4 mps 747 mmHg 92%
10:00 +3°C° 0 mm 5 mps 747 mmHg 88%
11:00 +5°C° 0 mm 5 mps 747 mmHg 83%
12:00 +6°C° 0 mm 5 mps 747 mmHg 84%
13:00 +6°C° 0 mm 5 mps 747 mmHg 84%
14:00 +7°C° 0 mm 4 mps 746 mmHg 84%
15:00 +6°C° 0 mm 4 mps 746 mmHg 88%
16:00 +5°C° 0 mm 4 mps 746 mmHg 92%
17:00 +4°C° 0 mm 4 mps 746 mmHg 95%
18:00 +3°C° 0 mm 5 mps 746 mmHg 95%
19:00 +3°C° 0 mm 5 mps 746 mmHg 95%
20:00 +3°C° 0 mm 5 mps 746 mmHg 95%
21:00 +3°C° 0 mm 5 mps 745 mmHg 94%
22:00 +3°C° 0 mm 6 mps 745 mmHg 93%
23:00 +4°C° 0 mm 7 mps 745 mmHg 92%

Day after tomorrow, 24 January, Sunday

Time Temperature Precipitation Wind Pressure Humidity
00:00 +4°C° 0 mm 7 mps 745 mmHg 91%
01:00 +4°C° 0 mm 7 mps 745 mmHg 90%
02:00 +4°C° 0 mm 8 mps 745 mmHg 89%
03:00 +5°C° 0 mm 8 mps 744 mmHg 88%
04:00 +5°C° 0 mm 8 mps 744 mmHg 87%
05:00 +5°C° 0 mm 8 mps 743 mmHg 86%
06:00 +5°C° 0.2 mm 8 mps 743 mmHg 85%
07:00 +5°C° 0.2 mm 9 mps 743 mmHg 84%
08:00 +5°C° 0.2 mm 9 mps 742 mmHg 84%
09:00 +6°C° 0.5 mm 10 mps 742 mmHg 86%
10:00 +6°C° 0.5 mm 11 mps 742 mmHg 88%
11:00 +6°C° 0.5 mm 11 mps 741 mmHg 90%
12:00 +6°C° 0.1 mm 11 mps 741 mmHg 87%
13:00 +7°C° 0.1 mm 10 mps 741 mmHg 85%
14:00 +7°C° 0.1 mm 9 mps 741 mmHg 82%
15:00 +7°C° 0 mm 8 mps 741 mmHg 84%
16:00 +6°C° 0 mm 7 mps 741 mmHg 86%
17:00 +5°C° 0 mm 6 mps 741 mmHg 89%
18:00 +5°C° 0 mm 6 mps 741 mmHg 91%
19:00 +5°C° 0 mm 6 mps 742 mmHg 93%
20:00 +4°C° 0 mm 6 mps 742 mmHg 95%
21:00 +5°C° 0.2 mm 5 mps 742 mmHg 95%
22:00 +5°C° 0.2 mm 5 mps 742 mmHg 95%
23:00 +5°C° 0.2 mm 5 mps 741 mmHg 95%

25 January, Monday

Time Temperature Precipitation Wind Pressure Humidity
00:00 +5°C° 0 mm 5 mps 742 mmHg 94%
01:00 +4°C° 0 mm 4 mps 742 mmHg 92%
02:00 +4°C° 0 mm 4 mps 742 mmHg 91%
03:00 +3°C° 0 mm 4 mps 742 mmHg 90%
04:00 +3°C° 0 mm 4 mps 742 mmHg 90%
05:00 +3°C° 0 mm 3 mps 741 mmHg 90%
06:00 +3°C° 0 mm 4 mps 741 mmHg 92%
07:00 +4°C° 0 mm 4 mps 741 mmHg 95%
08:00 +3°C° 0 mm 5 mps 741 mmHg 97%
09:00 +4°C° 0.2 mm 6 mps 741 mmHg 96%
10:00 +5°C° 0.2 mm 6 mps 741 mmHg 96%
11:00 +7°C° 0.2 mm 6 mps 740 mmHg 95%
12:00 +6°C° 0.9 mm 8 mps 739 mmHg 94%
13:00 +6°C° 0.9 mm 9 mps 738 mmHg 94%
14:00 +6°C° 0.9 mm 10 mps 738 mmHg 93%
15:00 +6°C° 1.4 mm 11 mps 737 mmHg 92%
16:00 +6°C° 1.4 mm 11 mps 736 mmHg 91%
17:00 +5°C° 1.4 mm 12 mps 735 mmHg 91%
18:00 +6°C° 1.1 mm 11 mps 735 mmHg 90%
19:00 +6°C° 1.1 mm 10 mps 734 mmHg 90%
20:00 +6°C° 1.1 mm 9 mps 734 mmHg 90%
21:00 +5°C° 0.1 mm 9 mps 734 mmHg 82%
22:00 +2°C° 0.1 mm 9 mps 734 mmHg 74%
23:00 +1°C° 0.1 mm 10 mps 734 mmHg 67%

26 January, Tuesday

Time Temperature Precipitation Wind Pressure Humidity
00:00 0°C° 0 mm 10 mps 734 mmHg 72%
01:00 0°C° 0 mm 10 mps 734 mmHg 78%
02:00 -2°C° 0 mm 11 mps 735 mmHg 83%
03:00 -2°C° 0.1 mm 10 mps 735 mmHg 81%
04:00 -1°C° 0.1 mm 9 mps 735 mmHg 80%
05:00 -1°C° 0.1 mm 8 mps 735 mmHg 78%
06:00 -2°C° 0 mm 8 mps 736 mmHg 80%
07:00 -2°C° 0 mm 8 mps 736 mmHg 83%
08:00 -2°C° 0 mm 8 mps 737 mmHg 85%
09:00 -3°C° 0.1 mm 9 mps 738 mmHg 81%
10:00 -3°C° 0.1 mm 11 mps 738 mmHg 77%
11:00 -2°C° 0.1 mm 12 mps 739 mmHg 73%
12:00 -2°C° 0 mm 12 mps 740 mmHg 68%
13:00 -1°C° 0 mm 11 mps 741 mmHg 62%
14:00 -1°C° 0 mm 11 mps 742 mmHg 57%
15:00 0°C° 0 mm 9 mps 742 mmHg 57%
16:00 -1°C° 0 mm 8 mps 743 mmHg 56%
17:00 -1°C° 0 mm 6 mps 744 mmHg 56%
18:00 -2°C° 0 mm 6 mps 745 mmHg 56%
19:00 -2°C° 0 mm 6 mps 745 mmHg 57%
20:00 -2°C° 0 mm 6 mps 746 mmHg 57%
21:00 -3°C° 0 mm 6 mps 746 mmHg 58%
22:00 -2°C° 0 mm 5 mps 746 mmHg 59%
23:00 -2°C° 0 mm 5 mps 747 mmHg 60%

27 January, Wednesday

Time Temperature Precipitation Wind Pressure Humidity
00:00 -4°C° 0 mm 5 mps 747 mmHg 60%
01:00 -4°C° 0 mm 5 mps 747 mmHg 60%
02:00 -4°C° 0 mm 5 mps 747 mmHg 61%
03:00 -3°C° 0 mm 4 mps 748 mmHg 60%
04:00 -3°C° 0 mm 4 mps 748 mmHg 60%
05:00 -3°C° 0 mm 4 mps 748 mmHg 60%
06:00 -3°C° 0 mm 4 mps 748 mmHg 61%
07:00 -3°C° 0 mm 4 mps 748 mmHg 61%
08:00 -2°C° 0 mm 3 mps 748 mmHg 61%
09:00 -1°C° 0 mm 3 mps 748 mmHg 57%
10:00 -1°C° 0 mm 4 mps 748 mmHg 52%
11:00 +1°C° 0 mm 4 mps 749 mmHg 48%
12:00 +1°C° 0 mm 4 mps 748 mmHg 48%
13:00 +1°C° 0 mm 4 mps 748 mmHg 49%
14:00 +2°C° 0 mm 3 mps 748 mmHg 50%
15:00 +1°C° 0 mm 3 mps 748 mmHg 55%
16:00 0°C° 0 mm 3 mps 748 mmHg 61%
17:00 -1°C° 0 mm 2 mps 748 mmHg 67%
18:00 -2°C° 0 mm 2 mps 748 mmHg 69%
19:00 -2°C° 0 mm 2 mps 748 mmHg 71%
20:00 -2°C° 0 mm 2 mps 748 mmHg 73%
21:00 -2°C° 0 mm 2 mps 748 mmHg 73%
22:00 -3°C° 0 mm 2 mps 748 mmHg 73%
23:00 -3°C° 0 mm 2 mps 748 mmHg 73%
Show more